DW9113 Weather Reports


time (UTC)temp
C
wind
direction
speed
KPH
gust
KPH
rain 1hr
cm
rain 24hr
cm
rain mn
cm
humidity
%
barometer
mb
20260509123030 11 213 6.4 22.5 0.00 0.00 0.00 70 998.8
20260509121530 11 192 4.8 22.5 0.00 0.00 0.00 71 998.7
20260509120027 11 173 3.2 12.9 0.00 0.00 0.00 70 998.5
20260509114535 11 200 1.6 19.3 0.00 0.00 0.00 70 998.5
20260509113030 11 360 4.8 22.5 0.00 0.00 0.00 69 998.5
20260509111528 11 0 1.6 14.5 0.00 0.00 0.00 69 998.3
20260509110027 10 188 0.0 16.1 0.00 0.00 0.00 68 998.5
20260509104526 10 186 3.2 16.1 0.00 0.00 0.00 68 998.5
20260509103029 10 0 0.0 8.0 0.00 0.00 0.00 68 998.9
20260509101530 10 0 0.0 9.7 0.00 0.00 0.00 68 998.8
20260509100030 10 0 0.0 9.7 0.00 0.00 0.00 68 999.1
20260509094531 8 0 0.0 1.6 0.00 0.00 0.00 71 999.1
20260509093026 8 0 0.0 1.6 0.00 0.00 0.00 71 999.4
20260509091535 7 0 0.0 1.6 0.00 0.00 0.00 74 999.8
20260509090037 7 0 0.0 0.0 0.00 0.00 0.00 75 1000.0
20260509084529 7 0 0.0 0.0 0.00 0.00 0.00 76 1000.0
20260509083030 8 0 0.0 0.0 0.00 0.00 0.00 74 1000.2
20260509081529 8 0 0.0 0.0 0.00 0.00 0.00 74 1000.2
20260509080029 9 0 0.0 0.0 0.00 0.00 0.00 72 1000.4
20260509074528 10 0 0.0 0.0 0.00 0.00 0.00 69 1000.5
20260509073035 11 0 0.0 0.0 0.00 0.00 0.00 65 1000.8
20260509071526 12 0 0.0 0.0 0.00 0.00 0.00 56 1001.4
20260509070030 12 0 0.0 6.4 0.00 0.00 0.00 52 1001.7
20260509064528 12 0 0.0 12.9 0.00 0.00 0.00 50 1001.5
20260509063038 12 198 0.0 12.9 0.00 0.00 0.00 48 1001.8
20260509061529 12 175 4.8 16.1 0.00 0.00 0.00 46 1002.1
20260509060029 11 0 0.0 19.3 0.00 0.00 0.00 43 1002.4
20260509054535 11 130 8.0 17.7 0.00 0.00 0.00 42 1002.3
20260509053048 11 0 3.2 12.9 0.00 0.00 0.00 39 1002.7
20260509051528 11 173 0.0 8.0 0.00 0.00 0.00 40 1002.9
20260509050028 11 0 0.0 1.6 0.00 0.00 0.00 40 1002.7
20260509044526 11 0 0.0 9.7 0.00 0.00 0.00 39 1002.9
20260509043039 11 0 0.0 9.7 0.00 0.00 0.00 39 1003.1
20260509041530 11 0 0.0 3.2 0.00 0.00 0.00 39 1003.3
20260509040029 11 0 0.0 8.0 0.00 0.00 0.00 39 1003.7
20260509034527 11 0 0.0 3.2 0.00 0.00 0.00 38 1004.2
20260509033028 12 0 0.0 9.7 0.00 0.00 0.00 38 1004.0
20260509031531 12 360 0.0 16.1 0.00 0.00 0.00 38 1004.1
20260509030028 12 146 1.6 16.1 0.00 0.00 0.00 38 1004.1
20260509024529 12 0 0.0 4.8 0.00 0.00 0.00 38 1004.4
20260509023029 12 0 0.0 16.1 0.00 0.00 0.00 39 1004.3
20260509021526 11 0 0.0 3.2 0.00 0.00 0.00 40 1004.3
20260509020026 11 0 0.0 3.2 0.00 0.00 0.00 40 1004.3
20260509014530 11 0 0.0 3.2 0.00 0.00 0.00 41 1004.4
20260509013031 12 174 0.0 8.0 0.00 0.00 0.00 39 1004.4
20260509011528 12 171 0.0 4.8 0.00 0.00 0.00 40 1004.3
20260509010032 12 0 0.0 14.5 0.00 0.00 0.00 38 1004.3
20260509004528 13 0 0.0 14.5 0.00 0.00 0.00 36 1004.2
20260509003033 13 180 0.0 12.9 0.00 0.00 0.00 35 1004.3
20260509001529 13 164 4.8 16.1 0.00 0.00 0.00 34 1004.5
20260509000027 14 184 3.2 24.1 0.00 0.00 0.00 34 1004.5
20260508234531 14 166 6.4 22.5 0.00 0.00 0.00 33 1004.6
20260508233035 15 0 6.4 22.5 0.00 0.00 0.00 32 1004.8
20260508231528 15 200 6.4 24.1 0.00 0.00 0.00 33 1004.7
20260508230027 16 178 3.2 17.7 0.00 0.00 0.00 32 1004.9
20260508224529 16 165 9.7 27.4 0.00 0.00 0.00 31 1005.1
20260508223032 16 167 4.8 20.9 0.00 0.00 0.00 32 1005.0
20260508221528 15 202 6.4 25.7 0.00 0.00 0.00 31 1005.3
20260508220030 15 177 9.7 27.4 0.00 0.00 0.00 30 1005.2
20260508214532 16 164 6.4 40.2 0.00 0.00 0.00 32 1005.4
20260508213032 16 238 8.0 20.9 0.00 0.00 0.00 30 1005.4
20260508211531 16 209 3.2 22.5 0.00 0.00 0.00 32 1005.6
20260508210035 16 186 6.4 30.6 0.00 0.00 0.00 31 1005.8
20260508204532 17 311 12.9 32.2 0.00 0.00 0.00 28 1005.8
20260508203032 17 171 4.8 22.5 0.00 0.00 0.00 32 1006.0
20260508201528 17 250 1.6 16.1 0.00 0.00 0.00 33 1006.0
20260508200032 16 256 3.2 25.7 0.00 0.00 0.00 33 1006.3
20260508194530 17 228 4.8 20.9 0.00 0.00 0.00 29 1006.5
20260508193028 16 184 4.8 29.0 0.00 0.00 0.00 32 1006.7
20260508191532 16 360 8.0 27.4 0.00 0.00 0.00 30 1006.9
20260508190033 16 360 6.4 19.3 0.00 0.00 0.00 32 1007.1
20260508184530 16 268 1.6 29.0 0.00 0.00 0.00 38 1007.3
20260508183029 15 0 6.4 17.7 0.00 0.00 0.00 40 1007.4
20260508181538 15 0 3.2 20.9 0.00 0.00 0.00 42 1007.7
20260508180028 15 151 11.3 38.6 0.00 0.00 0.00 39 1008.0
20260508174533 15 261 6.4 20.9 0.00 0.00 0.00 42 1008.2
20260508173030 15 196 8.0 22.5 0.00 0.00 0.00 43 1008.5
20260508171537 14 248 11.3 29.0 0.00 0.00 0.00 42 1008.6
20260508170030 13 256 6.4 25.7 0.00 0.00 0.00 48 1008.7
20260508164529 13 261 4.8 27.4 0.00 0.00 0.00 48 1008.9
20260508163028 13 209 4.8 24.1 0.00 0.00 0.00 51 1009.0
20260508161545 14 252 8.0 27.4 0.00 0.00 0.00 45 1009.0
20260508160030 13 257 11.3 30.6 0.00 0.00 0.00 45 1008.9
20260508154530 13 246 6.4 20.9 0.00 0.00 0.00 50 1008.9
20260508153049 13 240 4.8 27.4 0.00 0.00 0.00 46 1009.1
20260508151530 13 255 4.8 17.7 0.00 0.00 0.00 52 1009.1
20260508150028 13 254 3.2 17.7 0.00 0.00 0.00 50 1009.2
20260508144528 12 190 3.2 19.3 0.00 0.00 0.00 54 1009.3
20260508143041 12 236 8.0 25.7 0.00 0.00 0.00 52 1009.4
20260508141530 12 300 6.4 22.5 0.00 0.00 0.00 53 1009.4
20260508140028 12 165 4.8 14.5 0.00 0.00 0.00 52 1009.3
20260508134536 12 0 3.2 17.7 0.00 0.00 0.00 55 1009.4
20260508133030 11 0 0.0 17.7 0.00 0.00 0.00 60 1009.4
20260508131528 10 0 6.4 17.7 0.00 0.00 0.00 61 1009.5
20260508130029 9 174 3.2 16.1 0.00 0.00 0.00 65 1009.5
20260508124529 8 178 0.0 9.7 0.00 0.00 0.00 67 1009.6